Tracking 28520 objects as of 1-Mar-2024
HD Live streaming from Space Station
objects crossing your sky now

XTAR-EUR

Track XTAR-EUR now!
XTAR-EUR is classified as:


NORAD ID: 28542
Int'l Code: 2005-005A
Perigee: 35,774.5 km
Apogee: 35,812.8 km
Inclination: 2.2 °
Period: 1,436.1 minutes
Semi major axis: 42164 km
RCS: 6.3095 m2 (large)
Launch date: February 12, 2005
Source: United States (US)
Launch site: FRENCH GUIANA (FRGUI)

X-band; designed to be compatible with U.S. and NATO SATCOM systems.
Your satellite tracking list
Your tracking list is empty




NASA's NSSDC Master Catalog

Two Line Element Set (TLE):
1 28542U 05005A   24059.72405247  .00000160  00000-0  00000-0 0  9999
2 28542   2.1640  87.1713 0004546 236.3643 124.1385  1.00272164 69775
Source of the keplerian elements: AFSPC